[[{"header":{"parameterUnit":"m.s-1","parameterCategory":1,"la1":30.2991,"la2":30.254,"lo1":-89.0895,"lo2":-89.0444,"dy":0.0017,"dx":0.0017,"nx":28,"ny":28,"refTime":"2025-12-06T03:00:00:Z","depth":0,"parameterNumber":2,"parameterNumberName":"U-component_of_WINDS"},"data":[0,0,0,0,0,0,0,0,0,0,0,0,0,0,0,0,0,0,0,0,0,0,0,0,0,0,0,0,0,0,0,0,0,0,0,0,0,0,0,0,0,0,0,0,0,0,0,0,0,0,0,0,0,0,0,0,0,0,-0.961,-0.961,0,-0.9646,-0.9646,-0.9647,-0.9618,-0.9617,-0.9615,-0.9614,-0.9653,-0.9656,-0.9658,0,0,0,0,0,0,0,0,0,0,0,0,0,-0.9517,-0.9519,-0.961,-0.961,-0.9611,-0.9646,-0.9646,-0.9647,-0.9618,-0.9617,-0.9615,-0.9614,-0.9653,-0.9655,-0.9658,0,0,0,0,0,0,0,0,0,0,0,0,0,-0.9556,-0.9519,-0.961,-0.96,-0.96,-0.9646,-0.9646,-0.9647,-0.9618,-0.9616,-0.9615,-0.9613,-0.9652,-0.9655,-0.9658,-0.9716,0,0,-0.9668,-0.967,0,0,0,0,0,0,0,0,-0.9553,-0.9559,-0.9601,-0.9601,-0.9601,-0.9625,-0.9628,-0.967,-0.9619,-0.9611,-0.9614,-0.9612,-0.9646,-0.9649,-0.966,-0.9718,-0.9719,-0.9669,-0.9671,-0.9672,-0.9673,0,0,0,0,0,0,0,-0.9551,-0.9557,-0.9624,-0.9602,-0.9602,-0.9595,-0.9598,-0.9636,-0.9639,-0.9612,-0.961,-0.9614,-0.9645,-0.9657,-0.9661,-0.972,-0.9669,-0.9671,-0.9674,-0.9675,-0.9826,-0.9827,0,0,0,0,0,0,-0.9549,-0.9555,-0.9623,-0.9625,-0.9572,-0.9598,-0.9602,-0.9619,-0.9638,-0.9639,-0.9616,-0.9613,-0.9653,-0.9657,-0.9662,-0.9731,-0.9672,-0.9675,-0.9677,-0.9824,-0.9826,-0.9828,0,0,0,0,0,0,-0.9547,-0.9555,-0.9621,-0.959,-0.9598,-0.9602,-0.9621,-0.9621,-0.9633,-0.9641,-0.9642,-0.9628,-0.9651,-0.9658,-0.9702,-0.9732,-0.9677,-0.968,-0.9821,-0.9824,-0.9827,-0.9869,0,0,0,0,0,0,-0.9544,-0.9555,-0.9576,-0.959,-0.9599,-0.9661,-0.9623,-0.9623,-0.9639,-0.9635,-0.9652,-0.9653,-0.965,-0.9698,-0.9706,-0.9735,-0.9682,-0.9819,-0.9823,-0.9826,-0.9865,-0.9873,-0.9879,0,0,0,0,0,-0.9541,-0.9587,-0.9578,-0.9586,-0.9627,-0.9663,-0.9668,-0.9663,-0.9641,-0.9663,-0.9668,-0.9653,-0.9727,-0.9702,-0.9711,-0.9742,-0.9817,-0.9821,-0.9826,-0.9861,-0.9871,-0.9879,0,0,0,0,0,0,-0.9578,-0.9589,-0.9578,-0.963,-0.9646,-0.9658,-0.9685,-0.9673,-0.9696,-0.9692,-0.9685,-0.9689,-0.9736,-0.9743,-0.9716,-0.9799,-0.9768,-0.9775,-0.9792,-0.9802,-0.9809,-0.9807,-0.9685,0,0,0,0,0,-0.9592,-0.9619,-0.9628,-0.9673,-0.9681,-0.9682,-0.9697,-0.9692,-0.9708,-0.9714,-0.9723,-0.9739,-0.9766,-0.9784,-0.9809,-0.9865,-0.9868,-0.9891,-0.9898,-0.9904,-0.991,-0.994,-0.995,-0.9843,-0.9843,-0.9843,0,0,-0.9621,-0.9631,-0.9649,-0.968,-0.9691,-0.9721,-0.9688,-0.972,-0.9742,-0.9719,-0.9762,-0.9769,-0.9787,-0.9837,-0.986,-0.9845,-0.994,-0.991,-0.9915,-0.9918,-0.9946,-0.9956,-0.9965,-0.9846,-0.9846,-0.9845,0,0,-0.969,-0.97,-0.9738,-0.9749,-0.9766,-0.9766,-0.9776,-0.9789,-0.9792,-0.9835,-0.9818,-0.9844,-0.9891,-0.9904,-0.9917,-0.9989,-0.9976,-0.9997,-1.0037,-1.0066,-1.0074,-1.0082,-1.0108,-1.0118,-1.0003,-1.0003,-1.0003,0,-0.9725,-0.9768,-0.9759,-0.9793,-0.9807,-0.9787,-0.9826,-0.9838,-0.9862,-0.9873,-0.9855,-0.9913,-0.9923,-0.9977,-0.9994,-1.0005,-1.0016,-0.9996,-1.0074,-1.0081,-1.0088,-1.0113,-1.0123,-1.0006,-1.0006,-1.0005,-1.0005,0,-0.981,-0.984,-0.9869,-0.9892,-0.9909,-0.9946,-0.9943,-0.9962,-0.9954,-0.9956,-1.0,-1.0011,-1.0038,-1.005,-1.0044,-1.0102,-1.0092,-1.0075,-1.0044,-1.0101,-1.0124,-1.0134,-1.001,-1.0009,-1.0008,-1.0007,0,0,-0.9905,-0.9921,-0.9932,-0.9942,-0.9959,-0.9982,-1.0017,-1.0042,-1.0059,-1.0076,-1.0106,-1.0145,-1.0128,-1.0142,-1.0137,-1.0162,-1.0219,-1.0141,-1.0141,-1.0156,-1.0284,-1.0299,-1.031,-1.0209,-1.0211,-1.0213,-1.0283,0,-0.9975,-1.0035,-1.0028,-1.0086,-1.0113,-1.0093,-1.0124,-1.0137,-1.014,-1.0164,-1.0166,-1.0194,-1.017,-1.0178,-1.0202,-1.0207,-1.0245,-1.0201,-1.0238,-1.0239,-1.0235,-1.0322,-1.0337,-1.0403,-1.0292,-1.0294,-1.0295,0,-1.0065,-1.0084,-1.0145,-1.0156,-1.0167,-1.0195,-1.0217,-1.024,-1.0255,-1.0255,-1.027,-1.026,-1.0295,-1.0263,-1.0311,-1.0282,-1.0296,-1.03,-1.0303,-1.0307,-1.0271,-1.0329,-1.0424,-1.0434,-1.0309,-1.0308,-1.0307,0,-1.0129,-1.017,-1.0211,-1.022,-1.0234,-1.0254,-1.0261,-1.0274,-1.0289,-1.0309,-1.0319,-1.0342,-1.0356,-1.0374,-1.037,-1.0347,-1.042,-1.0388,-1.0422,-1.0422,-1.0439,-1.0438,-1.0539,-1.0446,-1.0446,-1.0446,-1.0446,0,-1.0208,-1.0247,-1.024,-1.0266,-1.0307,-1.0298,-1.034,-1.0345,-1.0356,-1.0382,-1.0366,-1.0391,-1.0384,-1.0409,-1.0406,-1.0447,-1.0453,-1.0454,-1.0453,-1.0456,-1.0456,-1.0466,-1.0462,-1.0449,-1.0448,-1.0448,-1.0447,0,-1.0288,-1.0285,-1.0329,-1.0338,-1.0341,-1.0371,-1.0379,-1.0403,-1.0403,-1.0437,-1.0444,-1.0445,-1.0473,-1.0471,-1.0503,-1.0501,-1.0551,-1.0545,-1.0547,-1.0545,-1.058,-1.0577,-1.0691,-1.0706,-1.0603,-1.0604,-1.0605,0,-1.0339,-1.0368,-1.038,-1.0396,-1.0404,-1.043,-1.0445,-1.0437,-1.0454,-1.0472,-1.0494,-1.052,-1.0541,-1.0587,-1.0591,-1.0615,-1.0609,-1.0647,-1.0613,-1.0615,-1.0611,-1.0609,-1.0612,-1.0655,-1.0656,-1.0657,-1.0657,0,-1.0432,-1.0428,-1.0451,-1.0473,-1.0491,-1.0508,-1.0523,-1.0537,-1.0531,-1.055,-1.0578,-1.0594,-1.0626,-1.0653,-1.0675,-1.0683,-1.067,-1.0668,-1.0677,-1.0681,-1.0682,-1.0683,-1.0566,-1.0666,-1.0665,-1.0664,-1.0664,-1.0664,-1.0499,-1.0524,-1.0535,-1.0561,-1.0571,-1.0585,-1.0608,-1.0611,-1.0634,-1.0659,-1.0652,-1.0684,-1.0697,-1.0726,-1.0735,-1.076,-1.0746,-1.076,-1.0763,-1.0767,-1.0771,-1.0676,-1.0764,-1.0764,-1.0764,-1.0763,-1.0763,0,-1.0592,-1.0598,-1.0621,-1.0642,-1.0662,-1.0646,-1.0661,-1.0679,-1.0707,-1.072,-1.0741,-1.0773,-1.0798,-1.0803,-1.0827,-1.0846,-1.084,-1.0853,-1.0852,-1.0854,-1.0782,-1.0772,-1.0857,-1.0857,-1.0857,-1.0857,-1.0857,-1.0857,-1.0642,-1.0682,-1.068,-1.0725,-1.0731,-1.0761,-1.0772,-1.0785,-1.0795,-1.0831,-1.0852,-1.0854,-1.0864,-1.0888,-1.0911,-1.0911,-1.0921,-1.0936,-1.0935,-1.0868,-1.0859,-1.085,-1.0841,-1.0938,-1.0939,-1.1005,-1.1005,-1.1006]},{"header":{"parameterUnit":"m.s-1","parameterCategory":1,"la1":30.2991,"la2":30.254,"lo1":-89.0895,"lo2":-89.0444,"dy":0.0017,"dx":0.0017,"nx":28,"ny":28,"refTime":"2025-12-06T03:00:00:Z","depth":0,"parameterNumber":3,"parameterNumberName":"V-component_of_WINDS"},"data":[0,0,0,0,0,0,0,0,0,0,0,0,0,0,0,0,0,0,0,0,0,0,0,0,0,0,0,0,0,0,0,0,0,0,0,0,0,0,0,0,0,0,0,0,0,0,0,0,0,0,0,0,0,0,0,0,0,0,-3.4245,-3.4245,0,-3.4299,-3.43,-3.43,-3.4266,-3.4265,-3.4263,-3.4262,-3.4314,-3.4317,-3.432,0,0,0,0,0,0,0,0,0,0,0,0,0,-3.4109,-3.4111,-3.4245,-3.4246,-3.4246,-3.4299,-3.43,-3.4301,-3.4267,-3.4265,-3.4263,-3.4261,-3.4314,-3.4317,-3.432,0,0,0,0,0,0,0,0,0,0,0,0,0,-3.4166,-3.4112,-3.4245,-3.4236,-3.4236,-3.4299,-3.43,-3.4301,-3.4267,-3.4265,-3.4262,-3.426,-3.4312,-3.4317,-3.4321,-3.4395,0,0,-3.4334,-3.4336,0,0,0,0,0,0,0,0,-3.4163,-3.4171,-3.4236,-3.4237,-3.4236,-3.4274,-3.4271,-3.4332,-3.4268,-3.4255,-3.4262,-3.4259,-3.4303,-3.4308,-3.4323,-3.4398,-3.44,-3.4334,-3.4337,-3.4339,-3.434,0,0,0,0,0,0,0,-3.4159,-3.4168,-3.4266,-3.4237,-3.4237,-3.4228,-3.4233,-3.4283,-3.4291,-3.4256,-3.4254,-3.4261,-3.4302,-3.4319,-3.4324,-3.4401,-3.4334,-3.4338,-3.4341,-3.4343,-3.4538,-3.4541,0,0,0,0,0,0,-3.4156,-3.4165,-3.4264,-3.4268,-3.4193,-3.4232,-3.4239,-3.4264,-3.4291,-3.4293,-3.4263,-3.4259,-3.4313,-3.4319,-3.4326,-3.4414,-3.4339,-3.4343,-3.4345,-3.4536,-3.4539,-3.4542,0,0,0,0,0,0,-3.4153,-3.4165,-3.4262,-3.4216,-3.4228,-3.4237,-3.4266,-3.4266,-3.4283,-3.4296,-3.4297,-3.4278,-3.4311,-3.432,-3.4378,-3.4415,-3.4345,-3.4349,-3.4533,-3.4537,-3.454,-3.4592,0,0,0,0,0,0,-3.4149,-3.4164,-3.4193,-3.4217,-3.423,-3.4315,-3.4269,-3.4269,-3.4291,-3.4287,-3.4311,-3.4313,-3.431,-3.4372,-3.4383,-3.442,-3.4352,-3.4529,-3.4535,-3.4539,-3.4587,-3.4597,-3.4606,0,0,0,0,0,-3.4145,-3.4205,-3.4195,-3.4207,-3.4267,-3.4317,-3.4325,-3.4321,-3.4294,-3.4323,-3.4331,-3.4312,-3.441,-3.4378,-3.439,-3.4429,-3.4527,-3.4533,-3.4539,-3.4583,-3.4595,-3.4606,0,0,0,0,0,0,-3.4185,-3.4208,-3.4197,-3.4267,-3.4291,-3.4312,-3.4348,-3.4335,-3.4365,-3.436,-3.4353,-3.4359,-3.442,-3.443,-3.4395,-3.4502,-3.4464,-3.4472,-3.4493,-3.4505,-3.4515,-3.4511,-3.4356,0,0,0,0,0,-3.4202,-3.4242,-3.426,-3.432,-3.4332,-3.4338,-3.436,-3.4355,-3.4379,-3.4388,-3.4401,-3.4423,-3.4459,-3.4483,-3.4516,-3.4588,-3.4593,-3.4621,-3.463,-3.4638,-3.4645,-3.4684,-3.4696,-3.4561,-3.4561,-3.4561,0,0,-3.4238,-3.4255,-3.4281,-3.4329,-3.4346,-3.4387,-3.4347,-3.4391,-3.4421,-3.4395,-3.4451,-3.4461,-3.4486,-3.4551,-3.4581,-3.4562,-3.4684,-3.4646,-3.4652,-3.4655,-3.4691,-3.4704,-3.4715,-3.4565,-3.4564,-3.4564,0,0,-3.4323,-3.4341,-3.4393,-3.4412,-3.4439,-3.4443,-3.4455,-3.4478,-3.4484,-3.4541,-3.4522,-3.4556,-3.4618,-3.4636,-3.4654,-3.4746,-3.473,-3.4757,-3.4807,-3.4844,-3.4855,-3.4864,-3.4897,-3.4908,-3.4765,-3.4765,-3.4765,0,-3.4364,-3.4425,-3.4421,-3.4468,-3.4489,-3.4468,-3.452,-3.4537,-3.4574,-3.4589,-3.4567,-3.4644,-3.466,-3.4729,-3.4751,-3.4766,-3.478,-3.4755,-3.4854,-3.4863,-3.4872,-3.4903,-3.4915,-3.4768,-3.4768,-3.4767,-3.4767,0,-3.4474,-3.4517,-3.4555,-3.4592,-3.4617,-3.4666,-3.4669,-3.4695,-3.4688,-3.4693,-3.475,-3.4768,-3.4805,-3.4821,-3.4814,-3.4889,-3.4876,-3.4855,-3.4816,-3.4888,-3.4917,-3.4929,-3.4773,-3.4771,-3.477,-3.477,0,0,-3.4586,-3.4621,-3.4635,-3.4651,-3.468,-3.4712,-3.476,-3.4796,-3.4819,-3.4844,-3.4883,-3.4936,-3.4916,-3.4936,-3.4931,-3.4964,-3.5035,-3.4938,-3.4938,-3.4955,-3.5118,-3.5135,-3.5148,-3.5024,-3.5027,-3.5028,-3.5116,0,-3.4674,-3.4758,-3.4755,-3.4833,-3.4872,-3.4852,-3.4893,-3.4915,-3.4921,-3.4954,-3.496,-3.4998,-3.4969,-3.4981,-3.5012,-3.502,-3.5068,-3.5014,-3.506,-3.5061,-3.5054,-3.5164,-3.5181,-3.5263,-3.5127,-3.5129,-3.5131,0,-3.4787,-3.4817,-3.4899,-3.4922,-3.4938,-3.4975,-3.5009,-3.5041,-3.5064,-3.5066,-3.5089,-3.5078,-3.5125,-3.5086,-3.515,-3.5113,-3.5131,-3.5138,-3.5141,-3.5145,-3.51,-3.517,-3.5289,-3.5301,-3.5149,-3.5147,-3.5146,0,-3.486,-3.4922,-3.4979,-3.4993,-3.5021,-3.5048,-3.506,-3.5082,-3.5104,-3.5132,-3.5147,-3.518,-3.5198,-3.5224,-3.5222,-3.5194,-3.5287,-3.5247,-3.529,-3.529,-3.531,-3.5309,-3.5433,-3.5323,-3.5322,-3.5322,-3.5322,0,-3.4958,-3.5008,-3.5012,-3.5047,-3.5103,-3.5099,-3.5155,-3.5164,-3.5183,-3.5219,-3.5204,-3.5237,-3.5233,-3.5267,-3.5266,-3.5319,-3.5327,-3.5329,-3.5329,-3.5331,-3.5331,-3.5343,-3.5337,-3.5325,-3.5325,-3.5324,-3.5323,0,-3.5049,-3.5054,-3.5115,-3.5136,-3.5143,-3.5183,-3.5201,-3.5234,-3.5238,-3.5284,-3.5294,-3.5302,-3.534,-3.5341,-3.5386,-3.5385,-3.5449,-3.5442,-3.5442,-3.544,-3.5482,-3.5478,-3.5619,-3.5637,-3.5515,-3.5516,-3.5517,0,-3.5111,-3.515,-3.5176,-3.5199,-3.5214,-3.5251,-3.5274,-3.5272,-3.5296,-3.5325,-3.5354,-3.5392,-3.5421,-3.5484,-3.5492,-3.5526,-3.5519,-3.5566,-3.5524,-3.5525,-3.5519,-3.5517,-3.5521,-3.5574,-3.5576,-3.5577,-3.5578,0,-3.522,-3.5221,-3.5255,-3.529,-3.5317,-3.5344,-3.5369,-3.5389,-3.5389,-3.5417,-3.5457,-3.548,-3.5525,-3.5562,-3.5595,-3.5606,-3.5592,-3.5591,-3.5602,-3.5605,-3.5603,-3.5604,-3.5464,-3.5588,-3.5587,-3.5586,-3.5585,-3.5585,-3.5298,-3.5332,-3.5356,-3.5394,-3.5413,-3.5436,-3.5468,-3.5477,-3.5511,-3.5548,-3.5544,-3.5589,-3.561,-3.5652,-3.5667,-3.5701,-3.5684,-3.5701,-3.5705,-3.5709,-3.5714,-3.5598,-3.5706,-3.5706,-3.5706,-3.5706,-3.5705,0,-3.5406,-3.5421,-3.5456,-3.5492,-3.5522,-3.5507,-3.5533,-3.5559,-3.5599,-3.5621,-3.565,-3.5696,-3.5732,-3.5743,-3.5778,-3.5802,-3.5797,-3.5811,-3.5809,-3.5812,-3.5726,-3.5713,-3.5816,-3.5816,-3.5816,-3.5816,-3.5816,-3.5816,-3.5466,-3.5522,-3.5525,-3.559,-3.5603,-3.5647,-3.5664,-3.5685,-3.5703,-3.5755,-3.5785,-3.5792,-3.581,-3.5845,-3.5877,-3.5879,-3.5893,-3.591,-3.591,-3.5829,-3.5818,-3.5808,-3.5795,-3.5913,-3.5913,-3.5993,-3.5994,-3.5994]}]]